DW9852 Weather Reports


Display with metric or nautical units.
time (UTC)temp
F
wind
direction
speed
MPH
gust
MPH
rain 1hr
in
rain 24hr
in
rain mn
in
humidity
%
barometer
mb
20260905050055 83 110 1.0 7.0 0.00 0.00 0.00 79 1015.8
20260905044602 83 138 1.0 10.0 0.00 0.00 0.00 76 1016.0
20260905043049 84 150 1.0 6.0 0.00 0.00 0.00 72 1015.9
20260905041552 84 89 1.0 9.0 0.00 0.00 0.00 69 1015.9
20260905040051 85 180 3.0 8.0 0.00 0.00 0.00 67 1015.8
20260905034557 85 0 0.0 4.0 0.00 0.00 0.00 67 1015.7
20260905033058 85 147 1.0 5.0 0.00 0.00 0.00 67 1015.6
20260905031553 85 53 3.0 6.0 0.00 0.00 0.00 67 1015.4
20260905030051 86 0 4.0 11.0 0.00 0.00 0.00 66 1015.4
20260905024600 86 29 3.0 7.0 0.00 0.00 0.00 67 1015.1
20260905023054 86 120 2.0 7.0 0.00 0.00 0.00 67 1014.7
20260905021556 86 6 2.0 7.0 0.00 0.00 0.00 66 1014.5
20260905020051 86 0 3.0 10.0 0.00 0.00 0.00 64 1014.3
20260905014559 86 49 2.0 6.0 0.00 0.00 0.00 64 1014.2
20260905013055 86 0 1.0 4.0 0.00 0.00 0.00 66 1014.1
20260905011552 86 0 0.0 1.0 0.00 0.00 0.00 66 1014.1
20260905010051 87 0 0.0 0.0 0.00 0.00 0.00 65 1013.9
20260905004558 87 0 0.0 1.0 0.00 0.00 0.00 63 1014.0
20260905003055 88 0 0.0 4.0 0.00 0.00 0.00 62 1013.8
20260905001602 88 0 0.0 6.0 0.00 0.00 0.00 62 1013.7
20260905000110 89 0 1.0 6.0 0.00 0.00 0.00 63 1013.6
20260904234548 89 20 1.0 5.0 0.00 0.00 0.00 62 1013.6
20260904233114 89 101 3.0 6.0 0.00 0.00 0.00 63 1013.5
20260904231557 89 63 0.0 4.0 0.00 0.00 0.00 64 1013.4
20260904230051 89 98 0.0 5.0 0.00 0.00 0.00 63 1013.7
20260904224555 89 27 0.0 3.0 0.00 0.00 0.00 66 1013.8
20260904223122 89 0 0.0 3.0 0.00 0.00 0.00 66 1013.9
20260904221556 88 44 1.0 5.0 0.00 0.00 0.00 67 1014.1
20260904220051 88 0 0.0 0.0 0.00 0.00 0.00 65 1014.3
20260904214551 87 0 0.0 3.0 0.00 0.00 0.00 64 1014.3
20260904213055 86 0 0.0 4.0 0.00 0.00 0.00 66 1014.5
20260904211551 86 101 2.0 7.0 0.00 0.00 0.00 72 1014.8
20260904210113 87 45 1.0 5.0 0.00 0.00 0.00 72 1015.0
20260904204558 88 120 1.0 7.0 0.00 0.00 0.00 70 1015.1
20260904203101 89 0 0.0 3.0 0.00 0.00 0.00 68 1015.2
20260904201551 88 0 0.0 6.0 0.00 0.00 0.00 68 1015.1
20260904194555 88 0 0.0 5.0 0.00 0.00 0.00 69 1015.4
20260904193109 88 0 1.0 6.0 0.00 0.00 0.00 69 1015.5
20260904191554 88 47 2.0 6.0 0.00 0.00 0.00 68 1015.7
20260904190055 89 0 0.0 6.0 0.00 0.00 0.00 66 1015.7
20260904184551 89 0 1.0 4.0 0.00 0.00 0.00 67 1015.8
20260904183050 89 44 1.0 4.0 0.00 0.00 0.00 67 1015.9
20260904181547 89 0 0.0 7.0 0.00 0.00 0.00 67 1016.0
20260904180052 87 58 1.0 6.0 0.00 0.00 0.00 71 1016.2
20260904174548 87 0 0.0 5.0 0.00 0.00 0.00 70 1016.4
20260904173104 87 143 2.0 5.0 0.00 0.00 0.00 73 1016.4
20260904171551 87 109 1.0 4.0 0.00 0.00 0.00 73 1016.8
20260904170050 86 201 0.0 4.0 0.00 0.00 0.00 74 1017.0
20260904164549 86 0 2.0 5.0 0.00 0.00 0.00 75 1017.1
20260904163057 86 76 1.0 4.0 0.00 0.00 0.00 76 1017.1
20260904161600 86 0 0.0 2.0 0.00 0.00 0.00 76 1017.1
20260904160059 85 0 0.0 2.0 0.00 0.00 0.00 78 1017.0
20260904154549 84 137 0.0 3.0 0.00 0.00 0.00 79 1017.0
20260904153059 85 0 0.0 3.0 0.00 0.00 0.00 79 1016.8
20260904151557 83 0 1.0 6.0 0.00 0.00 0.00 83 1016.7
20260904150053 82 0 0.0 3.0 0.00 0.00 0.00 85 1016.6
20260904144611 0 0.0 0.0 0.00 0.00 0.00 1016.7
20260904143100 0 0.0 0.0 0.00 0.00 0.00 1016.6
20260904141557 0 0.0 0.0 0.00 0.00 0.00 1016.6
20260904140054 0 0.0 0.0 0.00 0.00 0.00 1016.7
20260904134551 0 0.0 0.0 0.00 0.00 0.00 1016.6
20260904133059 0 0.0 0.0 0.00 0.00 0.00 1016.4
20260904131606 0 0.0 0.0 0.00 0.00 0.00 1016.3
20260904130100 0 0.0 0.0 0.00 0.00 0.00 1016.1
20260904124603 0 0.0 0.0 0.00 0.00 0.00 1016.0
20260904123052 0 0.0 0.0 0.00 0.00 0.00 1015.9
20260904121549 0 0.0 0.0 0.00 0.00 0.00 1015.8
20260904120107 0 0.0 0.0 0.00 0.00 0.00 1015.6
20260904114556 0 0.0 0.0 0.00 0.00 0.00 1015.5
20260904113053 0 0.0 0.0 0.00 0.00 0.00 1015.4
20260904111551 0 0.0 0.0 0.00 0.00 0.00 1015.2
20260904110050 0 0.0 0.0 0.00 0.00 0.00 1015.1
20260904104556 0 0.0 0.0 0.00 0.00 0.00 1015.1
20260904103052 0 0.0 0.0 0.00 0.00 0.00 1015.0
20260904101550 0 0.0 0.0 0.00 0.00 0.00 1015.0
20260904100051 0 0.0 0.0 0.00 0.00 0.00 1014.9
20260904094553 0 0.0 0.0 0.00 0.00 0.00 1014.9
20260904093106 0 0.0 0.0 0.00 0.00 0.00 1014.9
20260904091559 0 0.0 0.0 0.00 0.00 0.00 1014.8
20260904090053 0 147 0.0 1.0 0.00 0.00 0.00 87 1014.8
20260904084552 80 264 0.0 6.0 0.00 0.00 0.00 86 1014.9
20260904083102 80 0 0.0 5.0 0.00 0.00 0.00 86 1015.0
20260904081555 80 106 0.0 2.0 0.00 0.00 0.00 86 1015.0
20260904080052 80 78 0.0 2.0 0.00 0.00 0.00 86 1015.0
20260904074601 80 145 0.0 2.0 0.00 0.00 0.00 86 1015.2
20260904073047 80 0 0.0 2.0 0.00 0.00 0.00 85 1015.3
20260904071611 81 224 0.0 3.0 0.00 0.00 0.00 85 1015.4
20260904070106 81 0 0.0 6.0 0.00 0.00 0.00 84 1015.5
20260904064605 81 110 0.0 5.0 0.00 0.00 0.00 83 1015.4
20260904063054 81 48 0.0 4.0 0.00 0.00 0.00 83 1015.5
20260904061553 81 89 0.0 8.0 0.00 0.00 0.00 83 1015.6
20260904060054 81 0 1.0 6.0 0.00 0.00 0.00 82 1015.5
20260904054551 82 136 0.0 3.0 0.00 0.00 0.00 81 1015.7
20260904053059 82 122 0.0 8.0 0.00 0.00 0.00 81 1015.6
20260904051545 82 0 0.0 10.0 0.00 0.00 0.00 80 1015.7